Temp
-12 -11 -11 -11 -11 -11 -11 -10 -10 -10 -11 -11 -10 -10 -10 -10 -10 -10 -10 -10 -10 -10 -10 -10 -10 -10 -10 -10 -10 -10 -10 -11 -11 -11 -11 -11 -11 -11
-11 -11 -11 -11 -11 -11 -11 -11 -10 -11 -11 -11 -11 -11 -11 -10 -10 -10 -10 -10 -10 -10 -10 -10 -11 -11 -11 -10 -10 -10 -11 -11 -11 -11 -11 -11 -11 -11
-11 -11 -11 -11 -11 -11 -11 -11 -10 -11 -11 -11 -11 -11 -11 -10 -10 -10 -10 -11 -10 -10 -10 -10 -11 -11 -11 -11 -11 -11 -11 -11 -11 -11 -11 -11 -11 -11
-12 -12 -11 -11 -11 -11 -11 -11 -11 -11 -11 -11 -11 -11 -11 -11 -11 -11 -11 -11 -11 -10 -10 -10 -11 -11 -11 -11 -11 -11 -12 -12 -12 -11 -11 -11 -11 -11
-12 -12 -12 -12 -11 -11 -11 -11 -11 -11 -11 -11 -11 -11 -11 -11 -11 -11 -11 -11 -11 -11 -11 -11 -11 -11 -11 -11 -11 -11 -12 -12 -12 -12 -12 -12 -12 -11
-12 -12 -13 -14 -12 -11 -11 -11 -12 -12 -12 -12 -12 -12 -12 -11 -11 -11 -11 -11 -11 -11 -11 -11 -11 -11 -11 -11 -11 -11 -12 -12 -12 -12 -12 -12 -12 -12
-12 -13 -13 -14 -12 -12 -12 -12 -12 -12 -12 -12 -12 -12 -12 -12 -12 -12 -12 -11 -11 -11 -11 -11 -11 -11 -11 -11 -11 -11 -12 -12 -12 -12 -12 -12 -12 -12
-12 -13 -13 -14 -13 -12 -12 -12 -12 -12 -13 -12 -12 -12 -12 -12 -12 -12 -12 -12 -12 -12 -12 -12 -11 -11 -11 -11 -11 -11 -12 -12 -12 -12 -12 -12 -13 -12
-12 -12 -13 -13 -13 -13 -13 -12 -13 -12 -13 -13 -12 -12 -12 -12 -12 -12 -12 -12 -12 -12 -12 -12 -11 -12 -12 -11 -12 -12 -12 -12 -12 -12 -13 -13 -13 -13
-13 -13 -12 -13 -14 -13 -14 -13 -14 -13 -13 -13 -12 -13 -12 -12 -12 -12 -12 -12 -12 -12 -11 -11 -11 -12 -12 -12 -12 -12 -12 -12 -12 -13 -13 -13 -13 -13
-13 -13 -13 -13 -13 -14 -15 -15 -14 -14 -13 -14 -14 -13 -13 -13 -13 -12 -12 -12 -12 -12 -12 -12 -12 -12 -12 -12 -12 -13 -12 -12 -13 -13 -13 -13 -13 -13
-14 -13 -13 -13 -12 -13 -13 -13 -13 -14 -14 -14 -14 -13 -13 -13 -13 -12 -12 -12 -12 -12 -12 -12 -12 -12 -12 -12 -13 -13 -13 -13 -13 -13 -13 -13 -13 -13
-14 -13 -13 -12 -13 -12 -13 -13 -13 -15 -16 -15 -15 -13 -13 -15 -13 -13 -13 -13 -12 -13 -13 -13 -13 -13 -12 -13 -13 -13 -13 -13 -13 -13 -13 -13 -13 -13
-14 -14 -14 -13 -13 -12 -13 -13 -13 -14 -14 -14 -15 -13 -14 -14 -14 -13 -13 -13 -13 -13 -13 -13 -13 -13 -13 -13 -13 -13 -13 -13 -13 -13 -13 -14 -14 -14
-15 -14 -14 -14 -13 -13 -13 -13 -13 -13 -14 -13 -13 -14 -14 -14 -14 -13 -13 -13 -13 -13 -13 -13 -13 -13 -13 -13 -13 -13 -13 -13 -13 -13 -14 -14 -14 -14
-16 -15 -15 -16 -15 -15 -14 -13 -13 -13 -13 -14 -14 -14 -14 -14 -15 -14 -15 -14 -13 -14 -13 -13 -13 -13 -13 -13 -13 -13 -14 -14 -14 -14 -14 -14 -14 -14
-16 -16 -16 -16 -16 -15 -15 -14 -14 -14 -14 -13 -13 -14 -14 -13 -14 -15 -15 -14 -14 -14 -14 -14 -14 -14 -14 -14 -14 -14 -14 -14 -14 -14 -14 -14 -14 -14
-15 -15 -16 -16 -16 -16 -17 -15 -14 -14 -14 -14 -14 -14 -14 -13 -15 -15 -15 -14 -14 -14 -14 -14 -14 -14 -14 -14 -14 -14 -14 -14 -14 -14 -14 -14 -14 -14
-16 -16 -16 -16 -16 -17 -16 -16 -14 -14 -14 -14 -14 -14 -13 -14 -14 -14 -15 -15 -14 -14 -14 -14 -14 -14 -14 -14 -14 -14 -14 -14 -14 -14 -14 -14 -14 -14
-16 -16 -16 -16 -16 -16 -16 -16 -15 -15 -14 -15 -15 -15 -15 -14 -14 -14 -15 -15 -15 -15 -14 -14 -15 -14 -14 -14 -14 -14 -14 -14 -14 -14 -14 -14 -14 -14
-17 -17 -17 -17 -16 -16 -16 -16 -16 -16 -15 -15 -15 -16 -15 -15 -15 -15 -14 -15 -15 -15 -15 -15 -15 -15 -15 -15 -15 -14 -14 -15 -14 -15 -15 -15 -15 -15
-19 -19 -19 -19 -17 -17 -17 -16 -16 -16 -16 -16 -16 -15 -16 -16 -15 -15 -15 -15 -15 -16 -16 -16 -16 -16 -16 -15 -16 -15 -15 -15 -15 -15 -15 -15 -15 -15
-20 -20 -20 -20 -19 -18 -19 -18 -17 -17 -17 -17 -17 -17 -15 -17 -16 -16 -16 -16 -16 -16 -16 -16 -16 -16 -16 -16 -16 -17 -16 -16 -16 -16 -16 -15 -15 -15
Height
5729 5741 5750 5758 5764 5771 5777 5786 5794 5803 5812 5817 5822 5825 5827 5831 5835 5839 5842 5844 5846 5847 5849 5851 5853 5854 5855 5856 5857 5858 5858 5859 5859 5859 5859 5859 5859 5858
5718 5731 5739 5747 5754 5762 5769 5779 5788 5796 5803 5809 5813 5817 5820 5826 5830 5833 5836 5839 5841 5843 5845 5846 5848 5850 5851 5852 5853 5854 5855 5855 5856 5856 5855 5855 5855 5854
5707 5720 5729 5738 5745 5754 5762 5771 5779 5788 5795 5801 5805 5810 5815 5820 5824 5827 5831 5834 5836 5839 5840 5842 5843 5845 5846 5847 5848 5849 5850 5851 5852 5852 5852 5851 5851 5850
5697 5709 5718 5727 5735 5743 5753 5762 5771 5778 5786 5791 5796 5802 5810 5814 5817 5821 5824 5828 5831 5833 5835 5837 5838 5840 5841 5842 5843 5844 5846 5846 5847 5847 5847 5847 5847 5846
5686 5698 5708 5717 5726 5733 5743 5752 5761 5768 5775 5781 5787 5794 5800 5805 5810 5814 5818 5821 5824 5826 5829 5831 5832 5833 5835 5836 5837 5838 5840 5840 5842 5842 5842 5842 5842 5841
5674 5687 5695 5706 5715 5724 5733 5741 5750 5758 5766 5771 5777 5784 5790 5796 5801 5806 5812 5814 5815 5818 5821 5823 5825 5827 5829 5830 5831 5832 5833 5834 5835 5836 5836 5836 5835 5835
5662 5673 5683 5693 5703 5713 5721 5729 5737 5746 5754 5761 5766 5774 5780 5786 5795 5799 5803 5804 5807 5810 5813 5815 5817 5821 5822 5823 5824 5825 5826 5827 5828 5829 5829 5829 5828 5828
5651 5662 5671 5682 5691 5700 5710 5717 5725 5733 5741 5750 5757 5763 5770 5776 5782 5788 5790 5795 5799 5802 5802 5804 5808 5812 5814 5815 5816 5818 5819 5819 5820 5820 5821 5821 5821 5820
5639 5649 5655 5667 5679 5687 5696 5705 5712 5720 5727 5735 5741 5748 5756 5764 5771 5773 5780 5783 5788 5789 5792 5796 5800 5804 5806 5806 5807 5809 5810 5811 5812 5812 5812 5812 5812 5812
5625 5635 5644 5654 5665 5674 5683 5691 5699 5709 5716 5723 5731 5739 5745 5750 5755 5761 5765 5767 5771 5776 5782 5788 5791 5795 5796 5797 5799 5799 5801 5801 5802 5802 5802 5802 5802 5802
5613 5622 5632 5640 5649 5660 5668 5676 5685 5696 5703 5709 5716 5723 5729 5737 5743 5748 5752 5757 5763 5769 5772 5778 5781 5784 5786 5787 5788 5789 5790 5791 5792 5793 5793 5792 5791 5791
5601 5610 5620 5631 5639 5645 5654 5663 5671 5681 5687 5694 5702 5710 5716 5723 5730 5736 5740 5744 5751 5755 5762 5766 5770 5771 5774 5776 5776 5778 5778 5779 5781 5781 5782 5781 5780 5780
5587 5599 5608 5615 5624 5634 5640 5647 5659 5664 5669 5675 5684 5692 5699 5706 5714 5720 5725 5731 5737 5744 5749 5750 5756 5759 5761 5763 5764 5764 5765 5767 5770 5771 5770 5769 5768 5768
5576 5585 5593 5600 5610 5619 5628 5634 5640 5644 5649 5656 5664 5674 5682 5691 5699 5705 5710 5717 5723 5728 5730 5733 5740 5744 5747 5749 5753 5751 5751 5753 5755 5758 5758 5757 5756 5755
5563 5573 5580 5587 5594 5601 5609 5619 5625 5628 5633 5638 5649 5658 5667 5676 5680 5688 5694 5699 5704 5710 5714 5718 5725 5729 5731 5736 5739 5740 5737 5739 5740 5744 5745 5744 5743 5742
5550 5559 5568 5574 5578 5583 5594 5601 5607 5611 5615 5623 5634 5642 5647 5653 5662 5671 5675 5682 5687 5692 5699 5704 5709 5712 5716 5720 5721 5724 5725 5724 5727 5728 5728 5729 5730 5730
5537 5544 5550 5556 5563 5568 5576 5581 5589 5595 5599 5610 5616 5624 5631 5637 5643 5652 5657 5663 5667 5674 5681 5687 5691 5695 5697 5699 5701 5707 5712 5712 5713 5712 5711 5714 5715 5715
5521 5527 5534 5540 5545 5552 5558 5566 5572 5577 5584 5591 5599 5607 5613 5619 5626 5634 5639 5644 5651 5656 5662 5668 5672 5675 5677 5679 5684 5691 5695 5697 5701 5699 5696 5695 5698 5701
5499 5507 5515 5521 5527 5534 5542 5545 5553 5559 5566 5572 5581 5588 5594 5600 5605 5612 5620 5625 5631 5636 5641 5647 5652 5653 5657 5661 5668 5670 5673 5678 5680 5682 5681 5677 5677 5679
5475 5484 5493 5501 5506 5516 5522 5527 5530 5539 5545 5552 5560 5567 5574 5581 5587 5593 5598 5606 5611 5618 5622 5625 5631 5637 5638 5646 5646 5647 5651 5654 5658 5661 5662 5662 5663 5662
5449 5458 5468 5477 5486 5492 5501 5510 5516 5520 5527 5531 5538 5548 5554 5561 5567 5572 5578 5583 5588 5594 5601 5607 5613 5616 5619 5622 5622 5627 5632 5635 5637 5639 5641 5641 5642 5644
5423 5431 5442 5450 5459 5468 5475 5484 5493 5500 5506 5512 5518 5525 5534 5541 5546 5553 5558 5563 5569 5574 5578 5584 5591 5595 5598 5602 5603 5605 5608 5614 5617 5618 5619 5620 5621 5621
5399 5407 5413 5423 5433 5442 5450 5458 5468 5476 5485 5491 5497 5503 5512 5520 5527 5532 5537 5542 5548 5554 5560 5563 5568 5571 5575 5580 5582 5584 5586 5590 5593 5596 5597 5598 5599 5600
Wind_Speed
58 55 54 55 55 53 51 49 45 42 37 36 33 34 33 29 24 21 19 16 15 15 15 16 15 13 13 14 14 13 12 11 11 9 8 9 10 11
61 58 57 58 56 56 52 49 46 44 41 40 39 38 36 31 28 26 23 19 17 16 16 16 17 17 17 15 15 16 14 15 14 13 14 13 14 13
63 60 60 57 57 57 54 51 48 45 44 44 42 41 39 34 32 30 26 23 20 19 17 17 17 17 17 18 18 18 17 17 17 18 17 17 15 16
67 63 61 57 59 58 56 53 49 47 46 47 46 43 38 36 35 31 29 27 24 21 19 17 18 18 18 17 19 22 21 21 21 20 20 20 20 21
70 67 63 62 61 58 56 54 51 50 50 50 48 46 44 41 37 34 32 30 28 26 24 21 19 19 19 18 19 22 23 24 24 23 22 21 23 24
72 69 67 64 63 59 58 55 54 52 52 53 51 49 47 44 42 39 35 33 34 32 28 26 24 21 18 19 21 22 23 24 26 26 26 26 25 26
63 73 71 67 64 63 60 58 55 56 54 56 55 52 50 47 43 40 37 38 37 34 32 31 29 23 21 21 22 22 23 24 25 28 29 29 28 28
70 77 73 68 66 65 63 61 60 60 57 56 57 55 52 50 48 45 44 41 39 37 37 38 34 28 26 25 24 23 25 27 28 30 30 31 31 30
59 70 68 72 68 67 65 63 65 64 63 64 63 60 57 53 51 51 47 46 43 44 44 42 37 32 30 29 27 25 27 30 30 31 31 31 31 31
62 72 78 76 72 69 69 68 70 66 67 65 62 60 59 58 56 55 53 54 53 50 47 42 41 37 35 33 30 30 32 34 35 33 33 34 33 34
67 69 66 64 76 76 75 70 70 67 68 71 67 63 62 61 60 60 59 57 55 51 48 44 44 41 38 37 37 35 37 38 39 37 38 38 37 37
47 67 76 82 77 71 74 75 76 74 76 75 68 69 66 64 63 62 62 60 57 54 49 45 44 45 44 41 42 43 44 43 44 41 41 41 41 39
51 64 69 71 75 67 64 69 79 84 79 82 74 75 72 71 67 65 64 62 60 56 52 52 53 52 50 47 45 47 50 50 48 46 46 44 44 42
78 64 60 74 77 77 77 61 65 78 85 82 79 79 82 72 71 69 68 65 64 60 59 60 58 56 57 54 52 54 54 52 51 50 49 47 48 45
75 70 64 53 66 62 66 65 64 69 82 86 85 83 85 77 75 76 73 70 68 67 65 64 62 62 62 60 58 56 58 56 56 54 53 51 51 52
71 78 77 65 65 62 53 67 67 64 61 71 84 86 85 81 78 77 74 73 68 65 67 67 68 68 66 64 63 60 59 60 59 58 58 58 57 56
68 77 75 70 69 71 64 60 69 70 73 74 67 80 84 84 72 69 71 70 71 71 72 68 69 68 71 70 70 68 63 61 62 62 64 63 61 61
75 73 75 74 69 69 68 69 65 59 71 71 71 71 71 75 76 75 75 77 75 76 74 73 72 73 76 76 74 70 67 63 63 65 66 68 67 65
80 80 76 74 72 73 65 73 73 68 59 68 73 71 71 68 74 84 86 84 80 78 79 78 77 76 80 77 73 72 72 69 68 69 69 71 72 70
87 86 83 81 79 78 72 65 74 78 75 61 60 62 67 72 74 75 78 85 83 84 82 82 82 78 80 81 78 76 74 73 72 72 73 73 75 75
90 90 87 87 85 85 80 76 79 76 87 79 68 66 63 66 68 72 73 76 80 82 86 88 86 77 78 80 84 84 78 74 73 75 77 77 76 77
96 95 89 84 89 88 85 85 81 79 82 88 89 81 75 70 70 72 71 72 74 75 79 82 85 85 83 82 83 85 85 79 76 76 79 80 79 81
100 97 90 91 87 80 83 88 88 86 87 82 83 84 84 74 75 82 77 75 72 70 65 60 66 75 81 83 82 77 77 79 83 81 80 81 83 84
Wind_Direction
212 213 211 214 216 217 216 216 216 218 218 220 222 221 220 219 219 224 230 233 238 237 236 237 240 247 250 251 253 251 255 269 286 293 299 302 302 300
210 212 212 214 216 218 217 218 219 218 216 220 220 222 222 222 226 230 230 231 238 243 244 243 243 243 245 250 255 253 253 265 271 282 294 294 295 297
211 211 214 214 218 221 220 219 220 220 218 220 223 228 229 228 231 233 234 233 238 244 245 246 249 251 253 250 248 251 255 265 268 275 284 288 293 293
212 213 214 213 220 220 221 221 220 218 219 222 224 227 231 234 235 235 235 239 240 243 247 250 252 254 255 254 252 250 254 262 265 273 277 285 287 292
212 212 214 214 221 222 222 222 222 219 220 222 225 228 230 232 233 234 235 237 241 242 246 250 253 256 256 257 258 257 256 258 264 268 277 283 289 291
211 214 213 212 220 222 222 221 222 220 222 223 225 227 230 233 235 236 239 241 240 241 244 248 252 256 261 261 261 262 262 262 263 268 275 284 292 298
213 215 215 214 217 219 223 220 220 221 220 224 227 227 230 234 238 240 240 240 241 242 245 248 251 254 257 264 268 269 267 266 267 269 274 278 285 294
216 217 218 217 216 218 221 221 219 221 219 226 227 228 230 233 234 237 239 240 242 243 242 245 247 250 256 261 265 274 277 271 267 269 272 277 281 286
217 215 216 216 217 219 220 219 219 223 224 223 224 226 228 231 233 235 237 241 240 242 242 246 248 252 256 261 264 271 276 277 274 273 271 274 275 282
220 219 221 219 219 218 221 224 224 225 224 225 227 228 230 231 231 233 235 236 238 241 244 248 251 251 254 260 261 265 272 275 276 274 271 273 274 276
215 219 215 224 223 221 224 224 230 224 225 228 224 229 230 233 235 238 240 243 246 248 250 250 252 253 255 258 260 265 269 279 279 273 273 273 272 272
216 223 224 224 225 227 229 226 226 224 228 230 227 229 231 234 237 240 241 243 246 247 251 254 254 255 253 255 258 263 266 276 277 271 273 273 273 275
240 220 216 216 222 221 222 228 235 230 225 230 228 230 227 229 236 237 241 244 246 247 248 250 251 256 254 252 255 261 265 273 275 270 269 270 271 272
240 231 225 225 217 222 226 232 238 236 235 233 226 230 229 228 236 237 239 241 244 244 245 248 250 253 255 252 254 260 263 267 271 269 269 268 270 269
250 236 245 233 219 224 219 224 222 228 236 240 239 232 236 229 233 237 239 238 239 242 245 250 253 254 254 256 256 257 260 264 268 268 269 267 266 268
249 247 252 250 250 248 236 228 228 231 226 238 239 236 235 234 230 232 240 241 243 247 248 250 253 255 256 258 256 255 258 262 265 266 265 265 267 267
245 249 252 251 252 255 250 242 237 235 231 238 237 240 239 237 236 237 241 243 245 246 251 254 252 254 258 257 257 260 260 259 261 263 265 267 268 269
242 244 247 249 250 254 255 253 232 236 238 235 235 239 241 241 238 239 241 241 245 246 248 249 255 254 256 258 260 262 262 262 261 262 263 264 266 268
239 241 243 245 245 250 250 259 231 237 233 234 237 240 238 240 245 243 241 243 242 245 246 247 250 254 254 256 260 260 262 261 261 260 260 262 263 265
237 239 240 242 245 244 247 252 259 260 239 231 236 242 243 243 245 245 247 244 245 245 245 247 249 253 253 257 261 258 259 260 260 260 261 263 263 266
230 234 234 236 237 241 241 242 244 252 251 257 241 253 242 241 243 243 240 245 246 248 245 247 248 249 250 254 255 258 260 261 261 263 263 262 264 266
227 227 226 229 235 237 238 239 239 239 245 254 256 254 254 249 251 247 245 244 245 246 249 249 249 248 253 256 259 258 257 257 260 263 264 265 267 267
232 228 224 227 222 230 236 237 236 237 240 241 249 253 254 249 249 247 243 244 242 240 244 250 253 251 252 253 255 255 256 256 261 263 262 264 265 266